Time,TemperatureF,DewpointF,PressureIn,WindDirection,WindDirectionDegrees,WindSpeedMPH,WindSpeedGustMPH,Humidity,HourlyPrecipIn,Conditions,Clouds,dailyrainin,SoftwareType,DateUTC
2013-01-25 00:01:00,13.7,-0.7,30.44,NNW,330,7.3,9.2,52,0.00,CLR,,0.00,WeatherDisplay:10.37,2013-01-25 05:01:00,
2013-01-25 00:02:00,13.7,-0.3,30.44,WNW,294,6.2,8.1,53,0.00,CLR,,0.00,WeatherDisplay:10.37,2013-01-25 05:02:00,
2013-01-25 00:03:00,13.6,-0.4,30.44,NW,309,10.6,13.8,53,0.00,CLR,,0.00,WeatherDisplay:10.37,2013-01-25 05:03:00,
2013-01-25 00:08:00,13.6,-0.8,30.44,NW,325,10.4,13.8,52,0.00,CLR,,0.00,WeatherDisplay:10.37,2013-01-25 05:08:00,
2013-01-25 00:13:00,13.5,-0.5,30.44,NW,306,5.5,8.1,53,0.00,CLR,,0.00,WeatherDisplay:10.37,2013-01-25 05:13:00,
2013-01-25 00:18:00,13.4,-0.6,30.44,NW,304,7.7,12.7,53,0.00,CLR,,0.00,WeatherDisplay:10.37,2013-01-25 05:18:00,
2013-01-25 00:23:00,13.4,-1.0,30.44,NW,313,7.2,10.4,52,0.00,CLR,,0.00,WeatherDisplay:10.37,2013-01-25 05:23:00,
2013-01-25 00:28:00,13.3,-1.1,30.44,WNW,301,5.5,8.1,52,0.00,CLR,,0.00,WeatherDisplay:10.37,2013-01-25 05:28:00,
2013-01-25 00:33:00,13.2,-1.2,30.44,NW,315,9.7,16.1,52,0.00,CLR,,0.00,WeatherDisplay:10.37,2013-01-25 05:33:00,
2013-01-25 00:38:00,13.2,-1.2,30.44,NW,315,10.4,16.1,52,0.00,CLR,,0.00,WeatherDisplay:10.37,2013-01-25 05:38:00,
2013-01-25 00:43:00,13.2,-1.2,30.44,West,275,8.2,12.7,52,0.00,CLR,,0.00,WeatherDisplay:10.37,2013-01-25 05:43:00,
2013-01-25 00:48:00,13.1,-1.3,30.44,WSW,250,6.2,9.2,52,0.00,CLR,,0.00,WeatherDisplay:10.37,2013-01-25 05:48:00,
2013-01-25 00:53:00,13.0,-0.9,30.44,WNW,298,6.0,8.1,53,0.00,CLR,,0.00,WeatherDisplay:10.37,2013-01-25 05:53:00,
2013-01-25 00:58:00,12.7,-1.2,30.44,West,265,6.3,11.5,53,0.00,CLR,,0.00,WeatherDisplay:10.37,2013-01-25 05:58:00,
2013-01-25 01:03:00,12.7,-1.2,30.44,WNW,284,5.1,6.9,53,0.00,CLR,,0.00,WeatherDisplay:10.37,2013-01-25 06:03:00,
2013-01-25 01:08:00,12.5,-1.0,30.44,West,279,5.8,7.0,54,0.00,CLR,,0.00,WeatherDisplay:10.37,2013-01-25 06:08:00,
2013-01-25 01:13:00,12.5,-1.0,30.44,NW,312,4.8,5.8,54,0.00,CLR,,0.00,WeatherDisplay:10.37,2013-01-25 06:13:00,
2013-01-25 01:18:00,12.3,-1.2,30.44,WNW,299,3.0,3.5,54,0.00,CLR,,0.00,WeatherDisplay:10.37,2013-01-25 06:18:00,
2013-01-25 01:23:00,12.3,-0.8,30.44,NW,325,7.5,11.5,55,0.00,CLR,,0.00,WeatherDisplay:10.37,2013-01-25 06:23:00,
2013-01-25 01:28:00,12.2,-0.9,30.44,WNW,301,7.3,10.4,55,0.00,CLR,,0.00,WeatherDisplay:10.37,2013-01-25 06:28:00,
2013-01-25 01:33:00,12.2,-0.9,30.44,WNW,289,4.0,5.8,55,0.00,CLR,,0.00,WeatherDisplay:10.37,2013-01-25 06:33:00,
2013-01-25 01:38:00,12.1,-0.6,30.44,WNW,301,6.1,8.1,56,0.00,CLR,,0.00,WeatherDisplay:10.37,2013-01-25 06:38:00,
2013-01-25 01:43:00,12.0,-0.7,30.44,West,277,4.9,5.8,56,0.00,CLR,,0.00,WeatherDisplay:10.37,2013-01-25 06:43:00,
2013-01-25 01:48:00,11.8,-0.5,30.44,WNW,293,6.5,11.5,57,0.00,CLR,,0.00,WeatherDisplay:10.37,2013-01-25 06:48:00,
2013-01-25 01:53:00,11.7,-0.6,30.44,WNW,282,4.3,6.9,57,0.00,CLR,,0.00,WeatherDisplay:10.37,2013-01-25 06:53:00,
2013-01-25 01:58:00,11.7,-0.6,30.44,NW,316,4.3,5.8,57,0.00,CLR,,0.00,WeatherDisplay:10.37,2013-01-25 06:58:00,
2013-01-25 02:03:00,11.7,-0.3,30.44,WNW,286,2.5,4.6,58,0.00,CLR,,0.00,WeatherDisplay:10.37,2013-01-25 07:03:00,
2013-01-25 02:08:00,11.4,-0.5,30.44,NW,309,6.1,10.4,58,0.00,CLR,,0.00,WeatherDisplay:10.37,2013-01-25 07:08:00,
2013-01-25 02:13:00,11.3,-0.3,30.44,WNW,292,6.3,8.1,59,0.00,CLR,,0.00,WeatherDisplay:10.37,2013-01-25 07:13:00,
2013-01-25 02:18:00,11.3,-0.3,30.44,NNW,329,6.3,8.1,59,0.00,CLR,,0.00,WeatherDisplay:10.37,2013-01-25 07:18:00,
2013-01-25 02:23:00,11.3,-0.3,30.44,WNW,299,5.8,8.1,59,0.00,CLR,,0.00,WeatherDisplay:10.37,2013-01-25 07:23:00,
2013-01-25 02:28:00,11.3,-0.3,30.44,NW,317,3.2,4.6,59,0.00,CLR,,0.00,WeatherDisplay:10.37,2013-01-25 07:28:00,
2013-01-25 02:33:00,11.1,-0.1,30.44,WNW,290,2.1,3.5,60,0.00,CLR,,0.00,WeatherDisplay:10.37,2013-01-25 07:33:00,
2013-01-25 02:38:00,11.0,-0.2,30.44,SW,232,2.1,3.5,60,0.00,CLR,,0.00,WeatherDisplay:10.37,2013-01-25 07:38:00,
2013-01-25 02:43:00,11.0,0.2,30.44,SW,236,3.3,4.6,61,0.00,CLR,,0.00,WeatherDisplay:10.37,2013-01-25 07:43:00,
2013-01-25 02:48:00,11.0,0.2,30.44,West,261,2.5,3.5,61,0.00,CLR,,0.00,WeatherDisplay:10.37,2013-01-25 07:48:00,
2013-01-25 02:53:00,10.9,0.1,30.43,West,275,3.7,5.0,61,0.00,CLR,,0.00,WeatherDisplay:10.37,2013-01-25 07:53:00,
2013-01-25 02:58:00,10.8,0.0,30.43,WNW,289,1.6,2.3,61,0.00,CLR,,0.00,WeatherDisplay:10.37,2013-01-25 07:58:00,
2013-01-25 03:03:00,10.5,0.0,30.43,West,270,3.1,4.0,62,0.00,CLR,,0.00,WeatherDisplay:10.37,2013-01-25 08:03:00,
2013-01-25 03:08:00,10.4,0.3,30.43,West,262,3.9,5.8,63,0.00,CLR,,0.00,WeatherDisplay:10.37,2013-01-25 08:08:00,
2013-01-25 03:13:00,10.7,0.9,30.43,West,260,4.6,4.6,64,0.00,CLR,,0.00,WeatherDisplay:10.37,2013-01-25 08:13:00,
2013-01-25 03:18:00,10.9,0.8,30.43,WNW,283,5.3,6.9,63,0.00,CLR,,0.00,WeatherDisplay:10.37,2013-01-25 08:18:00,
2013-01-25 03:23:00,11.1,0.9,30.43,WNW,294,4.8,9.2,63,0.00,CLR,,0.00,WeatherDisplay:10.37,2013-01-25 08:23:00,
2013-01-25 03:28:00,11.1,1.3,30.43,WSW,241,4.1,4.6,64,0.00,CLR,,0.00,WeatherDisplay:10.37,2013-01-25 08:28:00,
2013-01-25 03:33:00,11.1,1.3,30.43,West,279,4.6,5.8,64,0.00,CLR,,0.00,WeatherDisplay:10.37,2013-01-25 08:33:00,
2013-01-25 03:38:00,11.1,1.3,30.43,WSW,257,3.1,4.6,64,0.00,CLR,,0.00,WeatherDisplay:10.37,2013-01-25 08:38:00,
2013-01-25 03:43:00,11.0,1.2,30.43,West,259,4.1,4.6,64,0.00,CLR,,0.00,WeatherDisplay:10.37,2013-01-25 08:43:00,
2013-01-25 03:48:00,10.9,1.4,30.43,WSW,253,3.2,3.5,65,0.00,CLR,,0.00,WeatherDisplay:10.37,2013-01-25 08:48:00,
2013-01-25 03:53:00,10.8,1.3,30.42,WSW,254,2.2,4.6,65,0.00,CLR,,0.00,WeatherDisplay:10.37,2013-01-25 08:53:00,
2013-01-25 03:59:00,10.6,1.1,30.43,West,267,2.1,3.5,65,0.00,CLR,,0.00,WeatherDisplay:10.37,2013-01-25 08:59:00,
2013-01-25 04:04:00,10.5,1.4,30.42,West,266,1.0,3.5,66,0.00,CLR,,0.00,WeatherDisplay:10.37,2013-01-25 09:04:00,
2013-01-25 04:09:00,10.3,1.2,30.42,West,280,2.0,3.5,66,0.00,CLR,,0.00,WeatherDisplay:10.37,2013-01-25 09:09:00,
2013-01-25 04:14:00,10.0,0.9,30.42,West,269,1.1,2.3,66,0.00,CLR,,0.00,WeatherDisplay:10.37,2013-01-25 09:14:00,
2013-01-25 04:19:00,9.6,0.8,30.42,West,265,2.7,3.5,67,0.00,CLR,,0.00,WeatherDisplay:10.37,2013-01-25 09:19:00,
2013-01-25 04:24:00,9.6,1.2,30.42,WSW,257,2.7,3.5,68,0.00,CLR,,0.00,WeatherDisplay:10.37,2013-01-25 09:24:00,
2013-01-25 04:29:00,9.5,1.1,30.42,WSW,251,2.6,4.6,68,0.00,CLR,,0.00,WeatherDisplay:10.37,2013-01-25 09:29:00,
2013-01-25 04:34:00,9.8,1.3,30.42,WSW,239,1.9,3.5,68,0.00,CLR,,0.00,WeatherDisplay:10.37,2013-01-25 09:34:00,
2013-01-25 04:39:00,9.8,1.0,30.43,WSW,249,2.0,6.0,68,0.00,,,0.00,weatherlink.com 1.10,2013-01-25 09:39:00,
2013-01-25 04:44:00,9.9,1.4,30.43,WSW,256,2.3,3.5,68,0.00,CLR,,0.00,WeatherDisplay:10.37,2013-01-25 09:44:00,
2013-01-25 04:49:00,9.9,1.4,30.43,SW,224,0.7,1.1,68,0.00,CLR,,0.00,WeatherDisplay:10.37,2013-01-25 09:49:00,
2013-01-25 04:54:00,9.9,1.4,30.43,SW,221,2.2,3.0,68,0.00,CLR,,0.00,WeatherDisplay:10.37,2013-01-25 09:54:00,
2013-01-25 04:59:00,9.9,1.8,30.43,West,278,3.6,3.6,69,0.00,CLR,,0.00,WeatherDisplay:10.37,2013-01-25 09:59:00,
2013-01-25 05:04:00,9.8,1.7,30.43,West,279,3.4,5.8,69,0.00,CLR,,0.00,WeatherDisplay:10.37,2013-01-25 10:04:00,
2013-01-25 05:09:00,9.8,2.0,30.44,West,269,3.5,5.8,70,0.00,CLR,,0.00,WeatherDisplay:10.37,2013-01-25 10:09:00,
2013-01-25 05:14:00,10.1,2.3,30.44,West,261,4.2,4.6,70,0.00,CLR,,0.00,WeatherDisplay:10.37,2013-01-25 10:14:00,
2013-01-25 05:19:00,10.2,2.0,30.44,West,259,4.8,5.8,69,0.00,CLR,,0.00,WeatherDisplay:10.37,2013-01-25 10:19:00,
2013-01-25 05:24:00,10.3,2.1,30.43,WSW,244,6.0,6.9,69,0.00,CLR,,0.00,WeatherDisplay:10.37,2013-01-25 10:24:00,
2013-01-25 05:29:00,10.7,2.5,30.43,WSW,244,2.1,3.5,69,0.00,CLR,,0.00,WeatherDisplay:10.37,2013-01-25 10:29:00,
2013-01-25 05:34:00,10.7,2.5,30.44,SW,232,1.1,3.5,69,0.00,CLR,,0.00,WeatherDisplay:10.37,2013-01-25 10:34:00,
2013-01-25 05:39:00,10.6,2.4,30.44,SW,231,2.3,3.5,69,0.00,CLR,,0.00,WeatherDisplay:10.37,2013-01-25 10:39:00,
2013-01-25 05:44:00,10.6,2.4,30.43,West,260,2.7,3.5,69,0.00,CLR,,0.00,WeatherDisplay:10.37,2013-01-25 10:44:00,
2013-01-25 05:49:00,10.7,2.5,30.43,West,259,3.4,5.8,69,0.00,CLR,,0.00,WeatherDisplay:10.37,2013-01-25 10:49:00,
2013-01-25 05:54:00,10.7,2.8,30.43,SW,230,1.2,3.5,70,0.00,CLR,,0.00,WeatherDisplay:10.37,2013-01-25 10:54:00,
2013-01-25 05:59:00,10.8,2.6,30.43,West,275,2.8,5.8,69,0.00,CLR,,0.00,WeatherDisplay:10.37,2013-01-25 10:59:00,
2013-01-25 06:04:00,10.8,2.6,30.42,WNW,284,5.6,10.4,69,0.00,CLR,,0.00,WeatherDisplay:10.37,2013-01-25 11:04:00,
2013-01-25 06:09:00,10.8,2.6,30.42,WNW,296,5.5,6.9,69,0.00,CLR,,0.00,WeatherDisplay:10.37,2013-01-25 11:09:00,
2013-01-25 06:14:00,10.8,2.6,30.42,West,275,4.1,4.6,69,0.00,CLR,,0.00,WeatherDisplay:10.37,2013-01-25 11:14:00,
2013-01-25 06:19:00,10.9,2.7,30.42,West,272,3.1,5.8,69,0.00,CLR,,0.00,WeatherDisplay:10.37,2013-01-25 11:19:00,
2013-01-25 06:24:00,11.0,2.8,30.42,WNW,282,4.2,6.0,69,0.00,CLR,,0.00,WeatherDisplay:10.37,2013-01-25 11:24:00,
2013-01-25 06:29:00,11.1,2.9,30.42,WSW,240,3.4,5.8,69,0.00,CLR,,0.00,WeatherDisplay:10.37,2013-01-25 11:29:00,
2013-01-25 06:34:00,11.2,3.0,30.42,West,279,2.8,5.8,69,0.00,CLR,,0.00,WeatherDisplay:10.37,2013-01-25 11:34:00,
2013-01-25 06:39:00,11.2,3.0,30.42,WNW,287,3.9,4.6,69,0.00,CLR,,0.00,WeatherDisplay:10.37,2013-01-25 11:39:00,
2013-01-25 06:44:00,11.3,3.1,30.43,SW,234,3.0,4.6,69,0.00,CLR,,0.00,WeatherDisplay:10.37,2013-01-25 11:44:00,
2013-01-25 06:49:00,11.2,3.0,30.43,SW,236,0.4,1.1,69,0.00,CLR,,0.00,WeatherDisplay:10.37,2013-01-25 11:49:00,
2013-01-25 06:54:00,11.3,3.1,30.43,WSW,238,1.2,3.5,69,0.00,CLR,,0.00,WeatherDisplay:10.37,2013-01-25 11:54:00,
2013-01-25 06:59:00,11.2,3.3,30.42,West,265,2.7,3.5,70,0.00,CLR,,0.00,WeatherDisplay:10.37,2013-01-25 11:59:00,
2013-01-25 07:04:00,11.3,3.4,30.41,WNW,290,2.2,2.3,70,0.00,CLR,,0.00,WeatherDisplay:10.37,2013-01-25 12:04:00,
2013-01-25 07:09:00,11.3,3.1,30.42,West,266,1.3,3.5,69,0.00,CLR,,0.00,WeatherDisplay:10.37,2013-01-25 12:09:00,
2013-01-25 07:14:00,11.3,3.1,30.42,West,266,0.7,2.3,69,0.00,CLR,,0.00,WeatherDisplay:10.37,2013-01-25 12:14:00,
2013-01-25 07:19:00,11.3,3.4,30.41,SW,222,0.5,1.1,70,0.00,CLR,,0.00,WeatherDisplay:10.37,2013-01-25 12:19:00,
2013-01-25 07:24:00,11.2,3.6,30.41,NW,311,2.4,3.5,71,0.00,CLR,,0.00,WeatherDisplay:10.37,2013-01-25 12:24:00,
2013-01-25 07:29:00,11.2,3.6,30.41,WNW,291,0.9,3.5,71,0.00,CLR,,0.00,WeatherDisplay:10.37,2013-01-25 12:29:00,
2013-01-25 07:34:00,11.3,3.4,30.41,West,265,1.3,3.5,70,0.00,CLR,,0.00,WeatherDisplay:10.37,2013-01-25 12:34:00,
2013-01-25 07:39:00,11.5,3.6,30.41,NW,314,3.3,3.5,70,0.00,CLR,,0.00,WeatherDisplay:10.37,2013-01-25 12:39:00,
2013-01-25 07:44:00,11.6,4.0,30.41,West,268,2.1,3.5,71,0.00,CLR,,0.00,WeatherDisplay:10.37,2013-01-25 12:44:00,
2013-01-25 07:49:00,11.7,3.8,30.40,WNW,303,2.1,3.5,70,0.00,CLR,,0.00,WeatherDisplay:10.37,2013-01-25 12:49:00,
2013-01-25 07:54:00,11.8,3.9,30.40,NNW,335,0.7,3.0,70,0.00,CLR,,0.00,WeatherDisplay:10.37,2013-01-25 12:54:00,
2013-01-25 07:59:00,12.0,4.1,30.40,NNW,333,4.6,5.8,70,0.00,CLR,,0.00,WeatherDisplay:10.37,2013-01-25 12:59:00,
2013-01-25 08:04:00,12.2,4.3,30.41,WSW,242,1.7,2.3,70,0.00,CLR,,0.00,WeatherDisplay:10.37,2013-01-25 13:04:00,
2013-01-25 08:09:00,12.5,4.6,30.40,NNW,329,6.8,8.0,70,0.00,CLR,,0.00,WeatherDisplay:10.37,2013-01-25 13:09:00,
2013-01-25 08:14:00,12.7,4.4,30.40,North,355,5.6,8.1,69,0.00,CLR,,0.00,WeatherDisplay:10.37,2013-01-25 13:14:00,
2013-01-25 08:19:00,12.9,4.6,30.41,NW,319,2.4,5.8,69,0.00,CLR,,0.00,WeatherDisplay:10.37,2013-01-25 13:19:00,
2013-01-25 08:24:00,13.1,4.5,30.41,NW,323,3.3,5.0,68,0.00,CLR,,0.00,WeatherDisplay:10.37,2013-01-25 13:24:00,
2013-01-25 08:29:00,13.2,4.6,30.41,NW,325,6.4,6.9,68,0.00,CLR,,0.00,WeatherDisplay:10.37,2013-01-25 13:29:00,
2013-01-25 08:34:00,13.3,4.7,30.41,West,278,4.4,8.1,68,0.00,CLR,,0.00,WeatherDisplay:10.37,2013-01-25 13:34:00,
2013-01-25 08:39:00,13.4,4.5,30.42,WNW,292,6.2,6.9,67,0.00,CLR,,0.00,WeatherDisplay:10.37,2013-01-25 13:39:00,
2013-01-25 08:44:00,13.5,4.6,30.42,NW,314,6.6,9.2,67,0.00,CLR,,0.00,WeatherDisplay:10.37,2013-01-25 13:44:00,
2013-01-25 08:49:00,13.6,4.7,30.42,NW,315,3.1,4.6,67,0.00,CLR,,0.00,WeatherDisplay:10.37,2013-01-25 13:49:00,
2013-01-25 08:54:00,13.8,4.9,30.42,NNW,327,3.1,4.6,67,0.00,CLR,,0.00,WeatherDisplay:10.37,2013-01-25 13:54:00,
2013-01-25 08:59:00,14.0,5.1,30.42,NW,309,4.2,6.9,67,0.00,CLR,,0.00,WeatherDisplay:10.37,2013-01-25 13:59:00,
2013-01-25 09:04:00,14.2,5.2,30.42,NW,324,4.8,5.8,67,0.00,CLR,,0.00,WeatherDisplay:10.37,2013-01-25 14:04:00,
2013-01-25 09:10:00,14.4,5.1,30.42,NW,321,5.0,6.9,66,0.00,CLR,,0.00,WeatherDisplay:10.37,2013-01-25 14:10:00,
2013-01-25 09:15:00,14.4,4.8,30.42,NNW,330,2.6,5.8,65,0.00,CLR,,0.00,WeatherDisplay:10.37,2013-01-25 14:15:00,
2013-01-25 09:20:00,14.5,5.2,30.42,NW,316,6.9,10.4,66,0.00,CLR,,0.00,WeatherDisplay:10.37,2013-01-25 14:20:00,
2013-01-25 09:25:00,14.6,5.3,30.41,WNW,297,5.9,6.9,66,0.00,CLR,,0.00,WeatherDisplay:10.37,2013-01-25 14:25:00,
2013-01-25 09:30:00,14.8,5.2,30.41,West,261,5.2,6.9,65,0.00,CLR,,0.00,WeatherDisplay:10.37,2013-01-25 14:30:00,
2013-01-25 09:35:00,14.9,4.9,30.41,NW,306,4.7,9.2,64,0.00,CLR,,0.00,WeatherDisplay:10.37,2013-01-25 14:35:00,
2013-01-25 09:40:00,15.0,5.3,30.41,NNW,333,4.4,6.9,65,0.00,CLR,,0.00,WeatherDisplay:10.37,2013-01-25 14:40:00,
2013-01-25 09:45:00,15.2,4.9,30.41,NNW,339,4.2,9.2,63,0.00,CLR,,0.00,WeatherDisplay:10.37,2013-01-25 14:45:00,
2013-01-25 09:50:00,15.4,5.4,30.41,NNW,333,2.5,5.8,64,0.00,CLR,,0.00,WeatherDisplay:10.37,2013-01-25 14:50:00,
2013-01-25 09:55:00,15.7,5.3,30.41,NW,311,3.5,5.8,63,0.00,CLR,,0.00,WeatherDisplay:10.37,2013-01-25 14:55:00,
2013-01-25 10:00:00,15.8,5.4,30.41,WNW,292,4.6,4.6,63,0.00,CLR,,0.00,WeatherDisplay:10.37,2013-01-25 15:00:00,
2013-01-25 10:05:00,15.9,5.2,30.41,NW,306,2.0,4.0,62,0.00,CLR,,0.00,WeatherDisplay:10.37,2013-01-25 15:05:00,
2013-01-25 10:10:00,16.4,6.0,30.41,North,355,3.7,5.8,63,0.00,CLR,,0.00,WeatherDisplay:10.37,2013-01-25 15:10:00,
2013-01-25 10:15:00,16.8,6.0,30.40,NNW,343,6.0,9.0,62,0.00,CLR,,0.00,WeatherDisplay:10.37,2013-01-25 15:15:00,
2013-01-25 10:20:00,16.8,5.3,30.40,NNW,330,5.0,7.0,60,0.00,CLR,,0.00,WeatherDisplay:10.37,2013-01-25 15:20:00,
2013-01-25 10:25:00,17.0,5.9,30.40,NNW,328,3.0,7.0,61,0.00,CLR,,0.00,WeatherDisplay:10.37,2013-01-25 15:25:00,
2013-01-25 10:30:00,17.1,5.9,30.40,NW,319,5.0,7.0,61,0.00,CLR,,0.00,WeatherDisplay:10.37,2013-01-25 15:30:00,
2013-01-25 10:35:00,17.3,6.1,30.39,NNW,334,6.0,8.0,61,0.00,CLR,,0.00,WeatherDisplay:10.37,2013-01-25 15:35:00,
2013-01-25 10:40:00,17.6,6.1,30.38,NW,326,4.1,4.6,60,0.00,CLR,,0.00,WeatherDisplay:10.37,2013-01-25 15:40:00,
2013-01-25 10:45:00,17.7,5.8,30.38,NW,321,2.8,3.5,59,0.00,CLR,,0.00,WeatherDisplay:10.37,2013-01-25 15:45:00,
2013-01-25 10:50:00,17.6,6.1,30.38,North,355,4.1,5.8,60,0.00,CLR,,0.00,WeatherDisplay:10.37,2013-01-25 15:50:00,
2013-01-25 10:55:00,17.9,6.0,30.37,NW,315,1.0,2.3,59,0.00,CLR,,0.00,WeatherDisplay:10.37,2013-01-25 15:55:00,
2013-01-25 11:00:00,17.8,5.5,30.36,North,355,3.0,3.5,58,0.00,CLR,,0.00,WeatherDisplay:10.37,2013-01-25 16:00:00,
2013-01-25 11:05:00,18.1,6.5,30.36,North,360,4.6,5.8,60,0.00,CLR,,0.00,WeatherDisplay:10.37,2013-01-25 16:05:00,
2013-01-25 11:10:00,18.3,6.0,30.35,NNW,336,3.3,5.8,58,0.00,CLR,,0.00,WeatherDisplay:10.37,2013-01-25 16:10:00,
2013-01-25 11:15:00,18.5,6.5,30.35,North,355,3.9,4.6,59,0.00,CLR,,0.00,WeatherDisplay:10.37,2013-01-25 16:15:00,
2013-01-25 11:20:00,18.7,6.4,30.34,NW,325,1.3,2.3,58,0.00,CLR,,0.00,WeatherDisplay:10.37,2013-01-25 16:20:00,
2013-01-25 11:25:00,18.8,6.1,30.34,NE,41,4.7,5.8,57,0.00,CLR,,0.00,WeatherDisplay:10.37,2013-01-25 16:25:00,
2013-01-25 11:30:00,18.9,6.2,30.34,NNW,342,2.5,3.5,57,0.00,CLR,,0.00,WeatherDisplay:10.37,2013-01-25 16:30:00,
2013-01-25 11:35:00,18.9,6.2,30.33,North,355,4.6,5.8,57,0.00,CLR,,0.00,WeatherDisplay:10.37,2013-01-25 16:35:00,
2013-01-25 11:40:00,19.2,6.4,30.33,North,351,4.2,4.6,57,0.00,CLR,,0.00,WeatherDisplay:10.37,2013-01-25 16:40:00,
2013-01-25 11:45:00,19.4,6.2,30.33,NNW,327,1.7,3.5,56,0.00,CLR,,0.00,WeatherDisplay:10.37,2013-01-25 16:45:00,
2013-01-25 11:50:00,19.4,5.8,30.33,South,173,0.6,2.3,55,0.00,CLR,,0.00,WeatherDisplay:10.37,2013-01-25 16:50:00,
2013-01-25 11:55:00,19.5,5.9,30.33,NE,53,1.9,3.5,55,0.00,CLR,,0.00,WeatherDisplay:10.37,2013-01-25 16:55:00,
2013-01-25 12:00:00,19.5,5.9,30.33,NNW,340,1.8,3.5,55,0.00,CLR,,0.00,WeatherDisplay:10.37,2013-01-25 17:00:00,
2013-01-25 12:05:00,19.6,5.6,30.32,NNW,333,0.1,1.0,54,0.00,CLR,,0.00,WeatherDisplay:10.37,2013-01-25 17:05:00,
2013-01-25 12:10:00,19.8,6.2,30.32,NNW,327,2.8,3.5,55,0.00,CLR,,0.00,WeatherDisplay:10.37,2013-01-25 17:10:00,
2013-01-25 12:15:00,19.8,6.2,30.32,NNW,348,2.1,3.5,55,0.00,CLR,,0.00,WeatherDisplay:10.37,2013-01-25 17:15:00,
2013-01-25 12:20:00,19.8,6.2,30.31,NW,304,4.0,4.6,55,0.00,CLR,,0.00,WeatherDisplay:10.37,2013-01-25 17:20:00,
2013-01-25 12:25:00,20.0,6.0,30.31,WNW,286,1.3,3.5,54,0.00,CLR,,0.00,WeatherDisplay:10.37,2013-01-25 17:25:00,
2013-01-25 12:30:00,19.8,5.4,30.30,WNW,300,1.6,3.5,53,0.00,CLR,,0.00,WeatherDisplay:10.37,2013-01-25 17:30:00,
2013-01-25 12:35:00,19.9,5.9,30.30,NNW,344,1.2,2.3,54,0.00,CLR,,0.00,WeatherDisplay:10.37,2013-01-25 17:35:00,
2013-01-25 12:40:00,20.2,6.2,30.29,WNW,303,1.7,3.5,54,0.00,CLR,,0.00,WeatherDisplay:10.37,2013-01-25 17:40:00,
2013-01-25 12:45:00,20.3,5.9,30.29,WNW,302,1.4,3.5,53,0.00,CLR,,0.00,WeatherDisplay:10.37,2013-01-25 17:45:00,
2013-01-25 12:50:00,20.2,5.4,30.29,SW,221,0.9,2.3,52,0.00,CLR,,0.00,WeatherDisplay:10.37,2013-01-25 17:50:00,
2013-01-25 12:55:00,20.1,5.7,30.28,WSW,245,1.3,3.5,53,0.00,CLR,,0.00,WeatherDisplay:10.37,2013-01-25 17:55:00,
2013-01-25 13:00:00,20.0,5.2,30.27,WNW,293,2.6,3.5,52,0.00,CLR,,0.00,WeatherDisplay:10.37,2013-01-25 18:00:00,
2013-01-25 13:05:00,20.0,5.2,30.27,SW,230,0.3,2.3,52,0.00,CLR,,0.00,WeatherDisplay:10.37,2013-01-25 18:05:00,
2013-01-25 13:10:00,20.1,5.3,30.27,SSE,159,1.9,3.5,52,0.00,CLR,,0.00,WeatherDisplay:10.37,2013-01-25 18:10:00,
2013-01-25 13:15:00,20.2,4.9,30.26,WSW,244,1.9,3.5,51,0.00,CLR,,0.00,WeatherDisplay:10.37,2013-01-25 18:15:00,
2013-01-25 13:20:00,20.1,5.3,30.26,WSW,254,0.4,2.3,52,0.00,CLR,,0.00,WeatherDisplay:10.37,2013-01-25 18:20:00,
2013-01-25 13:25:00,20.4,6.4,30.26,South,178,1.1,2.3,54,0.00,CLR,,0.00,WeatherDisplay:10.37,2013-01-25 18:25:00,
2013-01-25 13:30:00,20.5,6.1,30.25,SW,233,3.0,4.6,53,0.00,CLR,,0.00,WeatherDisplay:10.37,2013-01-25 18:30:00,
2013-01-25 13:35:00,20.2,5.8,30.25,West,275,4.5,5.8,53,0.00,CLR,,0.00,WeatherDisplay:10.37,2013-01-25 18:35:00,
2013-01-25 13:40:00,20.4,6.0,30.25,South,171,1.1,2.3,53,0.00,CLR,,0.00,WeatherDisplay:10.37,2013-01-25 18:40:00,
2013-01-25 13:45:00,20.6,6.2,30.25,WNW,287,2.9,5.0,53,0.00,CLR,,0.00,WeatherDisplay:10.37,2013-01-25 18:45:00,
2013-01-25 13:50:00,20.7,6.2,30.25,SSW,211,2.4,3.5,53,0.00,CLR,,0.00,WeatherDisplay:10.37,2013-01-25 18:50:00,
2013-01-25 13:55:00,20.7,6.2,30.24,WSW,245,3.5,4.6,53,0.00,CLR,,0.00,WeatherDisplay:10.37,2013-01-25 18:55:00,
2013-01-25 14:00:00,20.7,6.7,30.24,South,175,2.0,3.5,54,0.00,CLR,,0.00,WeatherDisplay:10.37,2013-01-25 19:00:00,
2013-01-25 14:05:00,20.8,6.3,30.24,West,263,3.6,4.6,53,0.00,CLR,,0.00,WeatherDisplay:10.37,2013-01-25 19:05:00,
2013-01-25 14:10:00,20.8,6.3,30.24,SSW,203,2.9,3.5,53,0.00,CLR,,0.00,WeatherDisplay:10.37,2013-01-25 19:10:00,
2013-01-25 14:15:00,20.8,6.3,30.23,WSW,257,3.9,4.6,53,0.00,CLR,,0.00,WeatherDisplay:10.37,2013-01-25 19:15:00,
2013-01-25 14:20:00,20.8,5.9,30.23,WSW,247,2.5,4.0,52,0.00,CLR,,0.00,WeatherDisplay:10.37,2013-01-25 19:20:00,
2013-01-25 14:25:00,20.7,6.2,30.23,NW,307,2.2,3.5,53,0.00,CLR,,0.00,WeatherDisplay:10.37,2013-01-25 19:25:00,
2013-01-25 14:30:00,20.8,5.9,30.23,West,259,2.8,3.5,52,0.00,CLR,,0.00,WeatherDisplay:10.37,2013-01-25 19:30:00,
2013-01-25 14:35:00,20.9,6.0,30.22,SE,146,1.7,3.5,52,0.00,CLR,,0.00,WeatherDisplay:10.37,2013-01-25 19:35:00,
2013-01-25 14:40:00,20.8,5.9,30.21,SW,229,1.6,3.5,52,0.00,CLR,,0.00,WeatherDisplay:10.37,2013-01-25 19:40:00,
2013-01-25 14:45:00,20.7,5.8,30.21,WSW,238,2.2,3.5,52,0.00,CLR,,0.00,WeatherDisplay:10.37,2013-01-25 19:45:00,
2013-01-25 14:50:00,20.6,5.7,30.20,SW,232,0.3,1.1,52,0.00,CLR,,0.00,WeatherDisplay:10.37,2013-01-25 19:50:00,
2013-01-25 14:55:00,20.6,5.7,30.20,SW,230,0.5,1.1,52,0.00,CLR,,0.00,WeatherDisplay:10.37,2013-01-25 19:55:00,
2013-01-25 15:00:00,20.7,6.2,30.20,West,259,1.5,3.5,53,0.00,CLR,,0.00,WeatherDisplay:10.37,2013-01-25 20:00:00,
2013-01-25 15:05:00,20.8,6.3,30.20,South,172,0.4,2.3,53,0.00,CLR,,0.00,WeatherDisplay:10.37,2013-01-25 20:05:00,
2013-01-25 15:10:00,20.8,5.9,30.20,SSW,200,1.3,2.3,52,0.00,CLR,,0.00,WeatherDisplay:10.37,2013-01-25 20:10:00,
2013-01-25 15:15:00,20.8,5.5,30.20,WSW,242,1.7,3.5,51,0.00,CLR,,0.00,WeatherDisplay:10.37,2013-01-25 20:15:00,
2013-01-25 15:20:00,20.9,5.6,30.20,South,188,0.6,1.1,51,0.00,CLR,,0.00,WeatherDisplay:10.37,2013-01-25 20:20:00,
2013-01-25 15:25:00,21.0,5.7,30.20,South,178,1.3,1.3,51,0.00,CLR,,0.00,WeatherDisplay:10.37,2013-01-25 20:25:00,
2013-01-25 15:30:00,21.3,6.0,30.20,South,171,1.8,3.5,51,0.00,CLR,,0.00,WeatherDisplay:10.37,2013-01-25 20:30:00,
2013-01-25 15:35:00,21.4,6.0,30.19,SSE,163,1.7,2.3,51,0.00,CLR,,0.00,WeatherDisplay:10.37,2013-01-25 20:35:00,
2013-01-25 15:40:00,21.4,5.6,30.19,SE,144,0.6,3.5,50,0.00,CLR,,0.00,WeatherDisplay:10.37,2013-01-25 20:40:00,
2013-01-25 15:45:00,21.4,5.6,30.19,SSE,159,1.3,2.3,50,0.00,CLR,,0.00,WeatherDisplay:10.37,2013-01-25 20:45:00,
2013-01-25 15:50:00,21.3,5.5,30.19,SSW,209,0.7,1.1,50,0.00,CLR,,0.00,WeatherDisplay:10.37,2013-01-25 20:50:00,
2013-01-25 15:55:00,21.2,5.0,30.18,SSW,192,2.0,2.3,49,0.00,CLR,,0.00,WeatherDisplay:10.37,2013-01-25 20:55:00,
2013-01-25 16:00:00,21.2,5.9,30.19,South,186,2.4,2.4,51,0.00,CLR,,0.00,WeatherDisplay:10.37,2013-01-25 21:00:00,
2013-01-25 16:05:00,21.3,6.0,30.19,SE,144,0.8,3.5,51,0.00,CLR,,0.00,WeatherDisplay:10.37,2013-01-25 21:05:00,
2013-01-25 16:10:00,21.3,6.0,30.18,SSE,165,1.8,2.3,51,0.00,CLR,,0.00,WeatherDisplay:10.37,2013-01-25 21:10:00,
2013-01-25 16:15:00,21.2,6.3,30.18,South,175,2.5,3.5,52,0.00,CLR,,0.00,WeatherDisplay:10.37,2013-01-25 21:15:00,
2013-01-25 16:20:00,21.1,9.4,30.18,SE,144,3.6,5.8,60,0.00,CLR,,0.00,WeatherDisplay:10.37,2013-01-25 21:20:00,
2013-01-25 16:25:00,20.6,11.0,30.18,South,187,2.9,3.5,66,0.00,CLR,,0.00,WeatherDisplay:10.37,2013-01-25 21:25:00,
2013-01-25 16:31:00,19.7,11.8,30.18,South,184,1.9,3.5,71,0.00,CLR,,0.00,WeatherDisplay:10.37,2013-01-25 21:31:00,
2013-01-25 16:36:00,19.3,12.7,30.17,South,183,2.0,3.5,75,0.00,CLR,,0.00,WeatherDisplay:10.37,2013-01-25 21:36:00,
2013-01-25 16:41:00,18.9,12.3,30.18,South,183,1.4,2.3,75,0.00,CLR,,0.00,WeatherDisplay:10.37,2013-01-25 21:41:00,
2013-01-25 16:46:00,18.6,12.6,30.17,SSE,153,0.7,1.1,77,0.00,CLR,,0.00,WeatherDisplay:10.37,2013-01-25 21:46:00,
2013-01-25 16:51:00,18.4,13.0,30.17,South,174,2.3,3.5,79,0.00,CLR,,0.00,WeatherDisplay:10.37,2013-01-25 21:51:00,
2013-01-25 16:56:00,18.3,13.2,30.17,South,173,0.2,2.3,80,0.00,CLR,,0.00,WeatherDisplay:10.37,2013-01-25 21:56:00,
2013-01-25 17:01:00,18.2,13.1,30.17,SE,140,0.5,2.3,80,0.00,CLR,,0.00,WeatherDisplay:10.37,2013-01-25 22:01:00,
2013-01-25 17:06:00,18.2,13.3,30.16,SSE,155,1.1,2.3,81,0.00,CLR,,0.00,WeatherDisplay:10.37,2013-01-25 22:06:00,
2013-01-25 17:11:00,18.0,13.4,30.16,South,171,0.2,1.1,82,0.00,CLR,,0.00,WeatherDisplay:10.37,2013-01-25 22:11:00,
2013-01-25 17:16:00,18.0,13.7,30.16,SSE,168,0.4,2.3,83,0.00,CLR,,0.00,WeatherDisplay:10.37,2013-01-25 22:16:00,
2013-01-25 17:21:00,17.8,13.5,30.15,SSE,168,0.0,1.1,83,0.00,CLR,,0.00,WeatherDisplay:10.37,2013-01-25 22:21:00,
2013-01-25 17:26:00,17.7,13.7,30.15,South,178,1.3,2.3,84,0.00,CLR,,0.00,WeatherDisplay:10.37,2013-01-25 22:26:00,
2013-01-25 17:31:00,17.6,13.6,30.15,South,179,0.0,0.0,84,0.00,CLR,,0.00,WeatherDisplay:10.37,2013-01-25 22:31:00,
2013-01-25 17:36:00,17.5,13.8,30.15,South,180,0.0,1.1,85,0.00,CLR,,0.00,WeatherDisplay:10.37,2013-01-25 22:36:00,
2013-01-25 17:41:00,17.5,13.8,30.14,South,182,0.4,0.0,85,0.00,CLR,,0.00,WeatherDisplay:10.37,2013-01-25 22:41:00,
2013-01-25 17:46:00,17.4,13.9,30.14,South,182,0.0,2.3,86,0.00,CLR,,0.00,WeatherDisplay:10.37,2013-01-25 22:46:00,
2013-01-25 17:51:00,17.4,14.2,30.14,South,182,0.3,0.0,87,0.00,CLR,,0.00,WeatherDisplay:10.37,2013-01-25 22:51:00,
2013-01-25 17:56:00,17.3,14.1,30.14,South,182,0.2,0.0,87,0.00,CLR,,0.00,WeatherDisplay:10.37,2013-01-25 22:56:00,
2013-01-25 18:01:00,17.3,14.1,30.14,South,182,0.4,1.1,87,0.00,CLR,,0.00,WeatherDisplay:10.37,2013-01-25 23:01:00,
2013-01-25 18:06:00,17.2,14.0,30.14,WSW,250,2.1,3.5,87,0.00,CLR,,0.00,WeatherDisplay:10.37,2013-01-25 23:06:00,
2013-01-25 18:11:00,17.2,14.0,30.14,West,281,1.2,2.3,87,0.00,CLR,,0.00,WeatherDisplay:10.37,2013-01-25 23:11:00,
2013-01-25 18:16:00,17.2,14.0,30.14,West,265,2.2,3.5,87,0.00,CLR,,0.00,WeatherDisplay:10.37,2013-01-25 23:16:00,
2013-01-25 18:21:00,17.1,14.2,30.14,West,269,1.5,2.3,88,0.00,CLR,,0.00,WeatherDisplay:10.37,2013-01-25 23:21:00,
2013-01-25 18:26:00,17.1,14.2,30.14,West,261,2.3,3.5,88,0.00,CLR,,0.00,WeatherDisplay:10.37,2013-01-25 23:26:00,
2013-01-25 18:31:00,17.1,14.2,30.14,West,267,2.5,3.5,88,0.00,CLR,,0.00,WeatherDisplay:10.37,2013-01-25 23:31:00,
2013-01-25 18:36:00,17.1,14.2,30.14,West,267,0.0,1.1,88,0.00,CLR,,0.00,WeatherDisplay:10.37,2013-01-25 23:36:00,
2013-01-25 18:41:00,17.1,14.2,30.14,West,267,1.1,2.3,88,0.00,CLR,,0.00,WeatherDisplay:10.37,2013-01-25 23:41:00,
2013-01-25 18:46:00,17.0,14.1,30.14,West,267,0.5,2.3,88,0.00,CLR,,0.00,WeatherDisplay:10.37,2013-01-25 23:46:00,
2013-01-25 18:51:00,17.0,14.1,30.14,West,268,1.7,3.5,88,0.00,CLR,,0.00,WeatherDisplay:10.37,2013-01-25 23:51:00,
2013-01-25 18:56:00,16.9,14.0,30.14,West,271,1.8,3.5,88,0.00,CLR,,0.00,WeatherDisplay:10.37,2013-01-25 23:56:00,
2013-01-25 19:01:00,16.9,14.0,30.14,West,271,1.3,2.3,88,0.00,CLR,,0.00,WeatherDisplay:10.37,2013-01-26 00:01:00,
2013-01-25 19:06:00,16.9,14.0,30.13,West,271,0.1,1.1,88,0.00,CLR,,0.00,WeatherDisplay:10.37,2013-01-26 00:06:00,
2013-01-25 19:11:00,16.8,13.9,30.13,West,271,0.1,1.1,88,0.00,CLR,,0.00,WeatherDisplay:10.37,2013-01-26 00:11:00,
2013-01-25 19:16:00,16.8,13.9,30.13,West,269,1.1,2.3,88,0.00,CLR,,0.00,WeatherDisplay:10.37,2013-01-26 00:16:00,
2013-01-25 19:21:00,16.8,13.9,30.13,West,269,0.1,1.1,88,0.00,CLR,,0.00,WeatherDisplay:10.37,2013-01-26 00:21:00,
2013-01-25 19:26:00,16.7,13.8,30.12,West,269,0.1,1.1,88,0.00,CLR,,0.00,WeatherDisplay:10.37,2013-01-26 00:26:00,
2013-01-25 19:31:00,16.8,13.9,30.12,West,269,0.0,0.0,88,0.00,CLR,,0.00,WeatherDisplay:10.37,2013-01-26 00:31:00,
2013-01-25 19:36:00,16.7,13.8,30.12,West,269,0.6,1.1,88,0.00,CLR,,0.00,WeatherDisplay:10.37,2013-01-26 00:36:00,
2013-01-25 19:41:00,16.7,13.8,30.12,West,269,0.0,0.0,88,0.00,CLR,,0.00,WeatherDisplay:10.37,2013-01-26 00:41:00,
2013-01-25 19:46:00,16.7,14.0,30.12,West,269,0.4,1.1,89,0.00,CLR,,0.00,WeatherDisplay:10.37,2013-01-26 00:46:00,
2013-01-25 19:51:00,16.6,13.9,30.12,West,269,0.0,1.1,89,0.00,CLR,,0.00,WeatherDisplay:10.37,2013-01-26 00:51:00,
2013-01-25 19:56:00,16.6,13.9,30.12,West,269,0.0,0.0,89,0.00,CLR,,0.00,WeatherDisplay:10.37,2013-01-26 00:56:00,
2013-01-25 20:01:00,16.5,13.6,30.11,West,269,0.2,1.1,88,0.00,CLR,,0.00,WeatherDisplay:10.37,2013-01-26 01:01:00,
2013-01-25 20:06:00,16.5,13.8,30.12,West,269,0.0,0.0,89,0.00,CLR,,0.00,WeatherDisplay:10.37,2013-01-26 01:06:00,
2013-01-25 20:11:00,16.4,13.7,30.11,West,269,0.0,0.0,89,0.00,CLR,,0.00,WeatherDisplay:10.37,2013-01-26 01:11:00,
2013-01-25 20:16:00,16.3,13.6,30.11,West,269,0.0,1.1,89,0.00,CLR,,0.00,WeatherDisplay:10.37,2013-01-26 01:16:00,
2013-01-25 20:21:00,16.2,13.3,30.11,West,269,0.0,0.0,88,0.00,CLR,,0.00,WeatherDisplay:10.37,2013-01-26 01:21:00,
2013-01-25 20:26:00,16.0,13.1,30.10,West,269,0.0,0.0,88,0.00,CLR,,0.00,WeatherDisplay:10.37,2013-01-26 01:26:00,
2013-01-25 20:31:00,15.7,12.5,30.10,West,269,0.0,0.0,87,0.00,CLR,,0.00,WeatherDisplay:10.37,2013-01-26 01:31:00,
2013-01-25 20:36:00,15.2,11.8,30.10,West,269,0.0,0.0,86,0.00,CLR,,0.00,WeatherDisplay:10.37,2013-01-26 01:36:00,
2013-01-25 20:41:00,14.6,10.9,30.10,West,269,0.0,0.0,85,0.00,CLR,,0.00,WeatherDisplay:10.37,2013-01-26 01:41:00,
2013-01-25 20:46:00,14.0,10.3,30.10,West,269,0.0,0.0,85,0.00,CLR,,0.00,WeatherDisplay:10.37,2013-01-26 01:46:00,
2013-01-25 20:51:00,13.4,9.7,30.09,West,269,0.0,0.0,85,0.00,CLR,,0.00,WeatherDisplay:10.37,2013-01-26 01:51:00,
2013-01-25 20:56:00,13.0,9.6,30.09,West,269,0.0,0.0,86,0.00,CLR,,0.00,WeatherDisplay:10.37,2013-01-26 01:56:00,
2013-01-25 21:01:00,12.5,9.1,30.09,West,269,0.0,0.0,86,0.00,CLR,,0.00,WeatherDisplay:10.37,2013-01-26 02:01:00,
2013-01-25 21:06:00,12.2,8.8,30.09,West,269,0.0,0.0,86,0.00,CLR,,0.00,WeatherDisplay:10.37,2013-01-26 02:06:00,
2013-01-25 21:11:00,11.5,7.9,30.09,West,269,0.0,0.0,85,0.00,CLR,,0.00,WeatherDisplay:10.37,2013-01-26 02:11:00,
2013-01-25 21:16:00,10.8,7.2,30.09,West,269,0.5,1.1,85,0.00,CLR,,0.00,WeatherDisplay:10.37,2013-01-26 02:16:00,
2013-01-25 21:21:00,10.1,6.7,30.08,West,269,0.0,0.0,86,0.00,CLR,,0.00,WeatherDisplay:10.37,2013-01-26 02:21:00,
2013-01-25 21:26:00,9.8,6.7,30.08,West,269,0.0,0.0,87,0.00,CLR,,0.00,WeatherDisplay:10.37,2013-01-26 02:26:00,
2013-01-25 21:31:00,9.4,6.3,30.09,West,269,0.0,0.0,87,0.00,CLR,,0.00,WeatherDisplay:10.37,2013-01-26 02:31:00,
2013-01-25 21:36:00,9.0,5.9,30.08,West,269,0.5,1.1,87,0.00,CLR,,0.00,WeatherDisplay:10.37,2013-01-26 02:36:00,
2013-01-25 21:41:00,8.6,5.5,30.08,West,269,0.8,1.1,87,0.00,CLR,,0.00,WeatherDisplay:10.37,2013-01-26 02:41:00,
2013-01-25 21:46:00,8.3,5.2,30.08,West,269,1.5,2.3,87,0.00,CLR,,0.00,WeatherDisplay:10.37,2013-01-26 02:46:00,
2013-01-25 21:51:00,8.1,5.3,30.08,West,269,0.0,0.0,88,0.00,CLR,,0.00,WeatherDisplay:10.37,2013-01-26 02:51:00,
2013-01-25 21:56:00,7.9,5.1,30.08,West,269,0.2,1.1,88,0.00,CLR,,0.00,WeatherDisplay:10.37,2013-01-26 02:56:00,
2013-01-25 22:01:00,7.8,5.2,30.08,West,269,0.0,0.0,89,0.00,CLR,,0.00,WeatherDisplay:10.37,2013-01-26 03:01:00,
2013-01-25 22:06:00,7.8,5.2,30.08,West,269,0.0,0.0,89,0.00,CLR,,0.00,WeatherDisplay:10.37,2013-01-26 03:06:00,
2013-01-25 22:11:00,7.7,5.1,30.08,West,269,0.0,0.0,89,0.00,CLR,,0.00,WeatherDisplay:10.37,2013-01-26 03:11:00,
2013-01-25 22:16:00,7.5,4.7,30.07,West,269,0.0,0.0,88,0.00,CLR,,0.00,WeatherDisplay:10.37,2013-01-26 03:16:00,
2013-01-25 22:21:00,7.3,4.5,30.07,West,269,0.0,0.0,88,0.00,CLR,,0.00,WeatherDisplay:10.37,2013-01-26 03:21:00,
2013-01-25 22:26:00,6.9,3.8,30.08,West,269,0.0,0.0,87,0.00,CLR,,0.00,WeatherDisplay:10.37,2013-01-26 03:26:00,
2013-01-25 22:31:00,6.5,3.2,30.08,NW,304,1.5,2.3,86,0.00,CLR,,0.00,WeatherDisplay:10.37,2013-01-26 03:31:00,
2013-01-25 22:36:00,6.3,3.3,30.07,NW,304,0.0,0.0,87,0.00,CLR,,0.00,WeatherDisplay:10.37,2013-01-26 03:36:00,
2013-01-25 22:41:00,6.2,3.4,30.07,NW,304,0.0,0.0,88,0.00,CLR,,0.00,WeatherDisplay:10.37,2013-01-26 03:41:00,
2013-01-25 22:46:00,5.8,2.5,30.07,NW,304,0.1,1.1,86,0.00,CLR,,0.00,WeatherDisplay:10.37,2013-01-26 03:46:00,
2013-01-25 22:51:00,5.4,2.1,30.07,NW,323,1.3,2.3,86,0.00,CLR,,0.00,WeatherDisplay:10.37,2013-01-26 03:51:00,
2013-01-25 22:56:00,5.3,2.3,30.07,NW,323,0.7,1.1,87,0.00,CLR,,0.00,WeatherDisplay:10.37,2013-01-26 03:56:00,
2013-01-25 23:01:00,5.3,2.5,30.07,NW,323,0.1,1.1,88,0.00,CLR,,0.00,WeatherDisplay:10.37,2013-01-26 04:01:00,
2013-01-25 23:06:00,5.4,2.6,30.07,NW,323,0.0,0.0,88,0.00,CLR,,0.00,WeatherDisplay:10.37,2013-01-26 04:06:00,
2013-01-25 23:11:00,5.1,2.1,30.07,NW,323,1.0,1.1,87,0.00,CLR,,0.00,WeatherDisplay:10.37,2013-01-26 04:11:00,
2013-01-25 23:16:00,4.7,1.4,30.08,NW,323,0.8,1.1,86,0.00,CLR,,0.00,WeatherDisplay:10.37,2013-01-26 04:16:00,
2013-01-25 23:21:00,4.6,1.6,30.08,NW,323,0.1,0.0,87,0.00,CLR,,0.00,WeatherDisplay:10.37,2013-01-26 04:21:00,
2013-01-25 23:26:00,4.6,1.8,30.08,NW,323,0.0,0.0,88,0.00,CLR,,0.00,WeatherDisplay:10.37,2013-01-26 04:26:00,
2013-01-25 23:31:00,4.2,0.7,30.08,NW,323,0.2,1.1,85,0.00,CLR,,0.00,WeatherDisplay:10.37,2013-01-26 04:31:00,
2013-01-25 23:36:00,3.7,0.2,30.08,NW,323,0.0,0.0,85,0.00,CLR,,0.00,WeatherDisplay:10.37,2013-01-26 04:36:00,
2013-01-25 23:41:00,3.3,-0.2,30.08,NW,323,0.0,0.0,85,0.00,CLR,,0.00,WeatherDisplay:10.37,2013-01-26 04:41:00,
2013-01-25 23:46:00,3.1,-0.4,30.08,NW,323,0.0,0.0,85,0.00,CLR,,0.00,WeatherDisplay:10.37,2013-01-26 04:46:00,
2013-01-25 23:51:00,2.9,-0.3,30.08,NW,323,0.0,0.0,86,0.00,CLR,,0.00,WeatherDisplay:10.37,2013-01-26 04:51:00,
2013-01-25 23:56:00,2.8,-0.4,30.08,NW,323,0.8,1.1,86,0.00,CLR,,0.00,WeatherDisplay:10.37,2013-01-26 04:56:00,